Follow iAlert.com on twitter @ialertcom
Search For Active Alerts in Your Area  
  Hi Guest:  [ Sign-up / Services ] [ Login ]

Current weather by "City, St" or "zip code"  
 

Advertise Here

Current Conditions: Reading, Reading Regional Airport, PA

A Few Clouds


86.0 F

Last Updated on Sep 21 2017, 4:54 pm EDT
Humidity: 49%
Wind Speed: N 5.8 mph
Barometer 29.99 in
Dewpoint: 64.9 F
Visibility: 10.00 mi
Precip: --
Heat Index: 88 F
Wind Chill: NA
Current conditions at:

Reading, Reading Regional Airport, PA (KRDG)

Lat: 40.37 Lon: 75.959

Local Radar Image active severe weather and emergency alerts image image weather storm and storm spotter reports image weather observation monitoring service image
Local
Radar
Active
Alerts
Storm Reports Obs
Monitoring

iAlert Weather and Emergency Alert Notification Services:


ialert severe weather and emergency alerts by text message and email ialert daily weather forecast by email and text message service ialert real-time weather-observation monitoring and alert notification service ialert storm report monitoring alert notification

Observation History for Reading, Reading Regional Airport, PA


Time Wind
(mph)
Vis
(mi)
Weather Precip (in) Temperature (F) Relative
Humidity
Wind
Chill
(°F)
Heat
Index
(°F)
Pressure
Air Dwpt altimeter
(in)
sea level
(mb)
4:54 pm EDT N 5.8 10.00 A Few Clouds -- 86.0 64.9 49% NA 88 29.99 1015.8
3:54 pm EDT N 4.6 10.00 Fair -- 85.0 64.0 50% NA 86 29.99 1015.8
2:54 pm EDT NW 8.1 10.00 Fair -- 87.0 64.9 48% NA 89 30.00 1016.1
1:54 pm EDT N 5.8 10.00 Fair -- 85.0 64.0 50% NA 86 30.01 1016.5
12:54 pm EDT N 8.1 10.00 Fair -- 83.0 66.0 57% NA 85 30.03 1017.1
11:54 am EDT NW 4.6 10.00 Fair -- 83.0 68.0 61% NA 86 30.05 1017.7
10:54 am EDT NE 4.6 10.00 Fair -- 78.0 66.9 69% NA NA 30.05 1018.0
9:54 am EDT NW 3.5 10.00 Fair -- 75.0 66.0 74% NA NA 30.06 1018.1
8:54 am EDT N 0.0 10.00 Fair -- 71.0 64.9 81% NA NA 30.06 1018.1
7:54 am EDT N 0.0 10.00 Fair -- 67.0 64.9 93% NA NA 30.05 1018.0
6:54 am EDT N 0.0 10.00 Fair -- 63.0 63.0 100% NA NA 30.05 1017.9
5:54 am EDT N 0.0 10.00 Fair -- 63.0 62.1 97% NA NA 30.04 1017.3
4:54 am EDT NW 3.5 10.00 Fair -- 64.0 63.0 96% NA NA 30.01 1016.6
3:54 am EDT N 0.0 10.00 Fair -- 63.0 63.0 100% NA NA 30.00 1016.0
2:54 am EDT N 0.0 10.00 Fair -- 65.0 64.0 97% NA NA 29.99 1015.9
1:54 am EDT N 0.0 10.00 Fair -- 66.0 64.9 96% NA NA 29.99 1015.8
12:54 am EDT NW 3.5 10.00 Fair -- 66.0 64.0 93% NA NA 29.98 1015.6
11:54 pm EDT N 0.0 10.00 Fair -- 67.0 64.0 91% NA NA 29.99 1015.7
10:54 pm EDT N 0.0 10.00 Fair -- 70.0 64.9 84% NA NA 29.98 1015.3
9:54 pm EDT NW 4.6 10.00 Fair -- 72.0 64.9 79% NA NA 29.96 1014.6
8:54 pm EDT NE 3.5 10.00 Fair -- 73.0 66.0 79% NA NA 29.94 1014.1
7:54 pm EDT N 3.5 10.00 Fair -- 75.0 66.0 74% NA NA 29.93 1013.9
6:54 pm EDT N 4.6 10.00 A Few Clouds -- 80.0 64.9 60% NA 82 29.92 1013.5
5:54 pm EDT N 9.2 10.00 Fair -- 83.0 64.0 53% NA 84 29.92 1013.3

Regional Weather Observation


Reading, Reading Regional Airport, PA (KRDG)

A Few Clouds
86.0 F

Lancaster, Lancaster Airport, PA (KLNS)

Fair
84.0 F

Selinsgrove Penn Valley Airport, PA (KSEG)

Fair
86.0 F

Harrisburg, Harrisburg International Airport, PA (KMDT)

Mostly Cloudy
85.0 F

Harrisburg, Capital City Airport, PA (KCXY)

Fair
87.0 F

Allentown Queen City Municipal Airport, PA (KXLL)

Fair
86.0 F

Advertise Here